,,,PA_Meas_PMT16A,,PR_Meas_QMR101_102,,RH_Meas_QMH101,,SR_Meas_QMS101,,TA_Meas_QMH101,,GenWind,,GenWind,
date,time,status,PA,status,PR,status,RH,status,SR,status,TA,status,DirAvg,status,SpdAvg,
2009-08-27, 00:00:04,VALID,1004.19,VALID,0,VALID,91.3406,VALID,0,VALID,24.6964,VALID,353,VALID,0.380078,
2009-08-27, 00:01:04,VALID,1004.17,VALID,0,VALID,91.3635,VALID,0,VALID,24.714,VALID,326,VALID,0.372266,
2009-08-27, 00:02:04,VALID,1004.17,VALID,0,VALID,91.1651,VALID,0,VALID,24.7705,VALID,354,VALID,0.332812,
2009-08-27, 00:03:04,VALID,1004.15,VALID,0,VALID,90.8447,VALID,0,VALID,24.8308,VALID,352,VALID,0.648047,
2009-08-27, 00:04:04,VALID,1004.17,VALID,0,VALID,90.5624,VALID,0,VALID,24.8892,VALID,339,VALID,0.329297,
2009-08-27, 00:05:04,VALID,1004.17,VALID,0,VALID,90.2878,VALID,0,VALID,24.93,VALID,340,VALID,0.261328,
2009-08-27, 00:06:04,VALID,1004.16,VALID,0,VALID,90.0971,VALID,0,VALID,24.9282,VALID,339,VALID,0.341406,
2009-08-27, 00:07:04,VALID,1004.15,VALID,0,VALID,90.0666,VALID,0,VALID,24.9495,VALID,340,VALID,0.265625,
2009-08-27, 00:08:04,VALID,1004.15,VALID,0,VALID,90.0818,VALID,0,VALID,24.9282,VALID,340,VALID,0.142969,
2009-08-27, 00:09:04,VALID,1004.16,VALID,0,VALID,90.1123,VALID,0,VALID,24.9495,VALID,340,VALID,0,
2009-08-27, 00:10:04,VALID,1004.13,VALID,0,VALID,90.2039,VALID,0,VALID,24.9495,VALID,341,VALID,0.215234,
2009-08-27, 00:11:04,VALID,1004.14,VALID,0,VALID,90.2039,VALID,0,VALID,24.9068,VALID,343,VALID,0.557031,
2009-08-27, 00:12:04,VALID,1004.15,VALID,0,VALID,90.2039,VALID,0,VALID,24.969,VALID,350,VALID,1.01406,
2009-08-27, 00:13:04,VALID,1004.13,VALID,0,VALID,89.9826,VALID,0.100563,VALID,25.0255,VALID,352,VALID,0.804297,
2009-08-27, 00:14:04,VALID,1004.15,VALID,0,VALID,89.7538,VALID,0.100563,VALID,25.045,VALID,351,VALID,0.443359,
2009-08-27, 00:15:04,VALID,1004.12,VALID,0,VALID,89.6088,VALID,0.100563,VALID,25.0255,VALID,334,VALID,0.530859,
2009-08-27, 00:16:04,VALID,1004.12,VALID,0,VALID,89.5631,VALID,0.100563,VALID,25.0236,VALID,344,VALID,0.391406,
2009-08-27, 00:17:04,VALID,1004.11,VALID,0,VALID,89.5859,VALID,0.100563,VALID,24.9866,VALID,345,VALID,0.601172,
2009-08-27, 00:18:04,VALID,1004.07,VALID,0,VALID,89.6393,VALID,0.100563,VALID,24.9866,VALID,350,VALID,0.653125,
2009-08-27, 00:19:04,VALID,1004.04,VALID,0,VALID,89.7385,VALID,0.100563,VALID,24.9671,VALID,350,VALID,0.459766,
2009-08-27, 00:20:04,VALID,1004.01,VALID,0,VALID,89.8301,VALID,0,VALID,24.9087,VALID,350,VALID,0.160547,
2009-08-27, 00:21:04,VALID,1004.01,VALID,0,VALID,89.9674,VALID,0,VALID,24.8892,VALID,350,VALID,0.424219,
2009-08-27, 00:22:04,VALID,1003.97,VALID,0,VALID,90.12,VALID,0,VALID,24.8503,VALID,350,VALID,0.0230469,
2009-08-27, 00:23:04,VALID,1003.95,VALID,0,VALID,90.2725,VALID,0,VALID,24.8308,VALID,350,VALID,0.00585938,
2009-08-27, 00:24:04,VALID,1003.93,VALID,0,VALID,90.3031,VALID,0.100563,VALID,24.7724,VALID,350,VALID,0,
2009-08-27, 00:25:04,VALID,1003.91,VALID,0,VALID,90.3793,VALID,0.100563,VALID,24.714,VALID,350,VALID,0,
2009-08-27, 00:26:04,VALID,1003.9,VALID,0,VALID,90.593,VALID,0.100563,VALID,24.6556,VALID,350,VALID,0,
2009-08-27, 00:27:04,VALID,1003.91,VALID,0,VALID,90.7684,VALID,0.100563,VALID,24.5758,VALID,350,VALID,0,
2009-08-27, 00:28:04,VALID,1003.87,VALID,0,VALID,90.8829,VALID,0,VALID,24.4998,VALID,350,VALID,0.450391,
2009-08-27, 00:29:04,VALID,1003.84,VALID,0,VALID,91.1422,VALID,0,VALID,24.4025,VALID,350,VALID,0.528906,
2009-08-27, 00:30:04,VALID,1003.83,VALID,0,VALID,91.4169,VALID,0,VALID,24.3459,VALID,350,VALID,0.480078,
2009-08-27, 00:31:04,VALID,1003.82,VALID,0,VALID,91.7297,VALID,0,VALID,24.2468,VALID,350,VALID,0.471094,
2009-08-27, 00:32:04,VALID,1003.78,VALID,0,VALID,92.0196,VALID,0,VALID,24.2097,VALID,355,VALID,0.623438,
2009-08-27, 00:33:04,VALID,1003.8,VALID,0,VALID,92.2713,VALID,0,VALID,24.1318,VALID,357,VALID,0.488672,
2009-08-27, 00:34:04,VALID,1003.79,VALID,0,VALID,92.5078,VALID,0,VALID,24.0929,VALID,357,VALID,0.454297,
2009-08-27, 00:35:04,VALID,1003.79,VALID,0,VALID,92.7977,VALID,0,VALID,24.0521,VALID,357,VALID,0.302734,
2009-08-27, 00:36:04,VALID,1003.81,VALID,0,VALID,93.1257,VALID,0,VALID,24.0539,VALID,357,VALID,0.403906,
2009-08-27, 00:37:04,VALID,1003.8,VALID,0,VALID,93.4004,VALID,0,VALID,24.0539,VALID,357,VALID,0.3875,
2009-08-27, 00:38:04,VALID,1003.82,VALID,0,VALID,93.6216,VALID,0,VALID,24.0521,VALID,357,VALID,0.409375,
2009-08-27, 00:39:04,VALID,1003.83,VALID,0,VALID,93.7132,VALID,0,VALID,24.0734,VALID,357,VALID,0.383594,
2009-08-27, 00:40:04,VALID,1003.81,VALID,0,VALID,93.6979,VALID,0,VALID,24.0521,VALID,357,VALID,0.459766,
2009-08-27, 00:41:04,VALID,1003.81,VALID,0,VALID,93.6979,VALID,0,VALID,24.0345,VALID,357,VALID,0.474609,
2009-08-27, 00:42:04,VALID,1003.81,VALID,0,VALID,93.6445,VALID,0.100563,VALID,24.015,VALID,357,VALID,0.594531,
2009-08-27, 00:43:04,VALID,1003.79,VALID,0,VALID,93.6979,VALID,0,VALID,23.9761,VALID,357,VALID,0.460156,
2009-08-27, 00:44:04,VALID,1003.78,VALID,0,VALID,93.7589,VALID,0,VALID,23.9761,VALID,357,VALID,0.601953,
2009-08-27, 00:45:04,VALID,1003.76,VALID,0,VALID,93.7818,VALID,0,VALID,23.9159,VALID,357,VALID,0.544922,
2009-08-27, 00:46:04,VALID,1003.74,VALID,0,VALID,93.8429,VALID,0,VALID,23.8982,VALID,357,VALID,0.575391,
2009-08-27, 00:47:04,VALID,1003.74,VALID,0,VALID,93.8276,VALID,0,VALID,23.8593,VALID,357,VALID,0.134375,
2009-08-27, 00:48:04,VALID,1003.7,VALID,0,VALID,93.8963,VALID,0,VALID,23.8398,VALID,357,VALID,0.163281,
2009-08-27, 00:49:04,VALID,1003.72,VALID,0,VALID,94.0259,VALID,0,VALID,23.8593,VALID,357,VALID,0.348437,
2009-08-27, 00:50:04,VALID,1003.68,VALID,0,VALID,94.087,VALID,0,VALID,23.8398,VALID,357,VALID,0.170703,
2009-08-27, 00:51:04,VALID,1003.67,VALID,0,VALID,94.1633,VALID,0,VALID,23.8398,VALID,357,VALID,0,
2009-08-27, 00:52:04,VALID,1003.66,VALID,0,VALID,94.1938,VALID,0,VALID,23.8398,VALID,357,VALID,0.04375,
2009-08-27, 00:53:04,VALID,1003.63,VALID,0,VALID,94.293,VALID,0,VALID,23.8185,VALID,357,VALID,0.501953,
2009-08-27, 00:54:04,VALID,1003.65,VALID,0,VALID,94.3006,VALID,0,VALID,23.7991,VALID,357,VALID,0.310547,
2009-08-27, 00:55:04,VALID,1003.65,VALID,0,VALID,94.3845,VALID,0,VALID,23.8593,VALID,8,VALID,0.551172,
2009-08-27, 00:56:04,VALID,1003.65,VALID,0,VALID,94.4761,VALID,0,VALID,23.8982,VALID,12,VALID,0.308203,
2009-08-27, 00:57:04,VALID,1003.63,VALID,0,VALID,94.5371,VALID,0,VALID,23.8982,VALID,12,VALID,0.251953,
2009-08-27, 00:58:04,VALID,1003.62,VALID,0,VALID,94.5447,VALID,0,VALID,23.8982,VALID,12,VALID,0.401172,
2009-08-27, 00:59:04,VALID,1003.6,VALID,0,VALID,94.4989,VALID,0,VALID,23.8982,VALID,12,VALID,0.104687,
2009-08-27, 01:00:04,VALID,1003.59,VALID,0,VALID,94.5142,VALID,0,VALID,23.9177,VALID,12,VALID,0.0539063,
2009-08-27, 01:01:04,VALID,1003.57,VALID,0,VALID,94.4837,VALID,0,VALID,23.9177,VALID,12,VALID,0.339844,
2009-08-27, 01:02:04,VALID,1003.53,VALID,0,VALID,94.4227,VALID,0,VALID,23.8787,VALID,12,VALID,0.473828,
2009-08-27, 01:03:04,VALID,1003.54,VALID,0,VALID,94.4379,VALID,0,VALID,23.8575,VALID,12,VALID,0.342969,
2009-08-27, 01:04:04,VALID,1003.55,VALID,0,VALID,94.4227,VALID,0,VALID,23.838,VALID,12,VALID,0.446875,
2009-08-27, 01:05:04,VALID,1003.51,VALID,0,VALID,94.3235,VALID,0,VALID,23.8221,VALID,12,VALID,0.404687,
2009-08-27, 01:06:04,VALID,1003.48,VALID,0,VALID,94.3235,VALID,0,VALID,23.7814,VALID,11,VALID,0.568359,
2009-08-27, 01:07:04,VALID,1003.5,VALID,0,VALID,94.3235,VALID,0,VALID,23.7619,VALID,11,VALID,0.499219,
2009-08-27, 01:08:04,VALID,1003.48,VALID,0,VALID,94.3692,VALID,0,VALID,23.7619,VALID,11,VALID,0.506641,
2009-08-27, 01:09:04,VALID,1003.46,VALID,0,VALID,94.3845,VALID,0,VALID,23.7425,VALID,11,VALID,0.483203,
2009-08-27, 01:10:04,VALID,1003.46,VALID,0,VALID,94.4303,VALID,0,VALID,23.723,VALID,11,VALID,0.23125,
2009-08-27, 01:11:04,VALID,1003.44,VALID,0,VALID,94.56,VALID,0,VALID,23.7407,VALID,5,VALID,0.429297,
2009-08-27, 01:12:04,VALID,1003.43,VALID,0,VALID,94.5829,VALID,0,VALID,23.7619,VALID,5,VALID,0.396875,
2009-08-27, 01:13:04,VALID,1003.4,VALID,0,VALID,94.5981,VALID,0,VALID,23.7814,VALID,5,VALID,0.412891,
2009-08-27, 01:14:04,VALID,1003.4,VALID,0,VALID,94.6363,VALID,0,VALID,23.8009,VALID,5,VALID,0.327734,
2009-08-27, 01:15:04,VALID,1003.37,VALID,0,VALID,94.6363,VALID,0,VALID,23.7814,VALID,5,VALID,0.444922,
2009-08-27, 01:16:04,VALID,1003.35,VALID,0,VALID,94.6057,VALID,0,VALID,23.7407,VALID,5,VALID,0.300391,
2009-08-27, 01:17:04,VALID,1003.35,VALID,0,VALID,94.6057,VALID,0,VALID,23.7601,VALID,5,VALID,0.433984,
2009-08-27, 01:18:04,VALID,1003.31,VALID,0,VALID,94.6134,VALID,0,VALID,23.7619,VALID,5,VALID,0.422656,
2009-08-27, 01:19:04,VALID,1003.31,VALID,0,VALID,94.6057,VALID,0,VALID,23.7425,VALID,5,VALID,0.351953,
2009-08-27, 01:20:04,VALID,1003.29,VALID,0,VALID,94.6057,VALID,0,VALID,23.7425,VALID,5,VALID,0.462891,
2009-08-27, 01:21:04,VALID,1003.29,VALID,0,VALID,94.5905,VALID,0,VALID,23.723,VALID,5,VALID,0.424609,
2009-08-27, 01:22:04,VALID,1003.25,VALID,0,VALID,94.6057,VALID,0,VALID,23.7017,VALID,5,VALID,0.492578,
2009-08-27, 01:23:04,VALID,1003.27,VALID,0,VALID,94.6057,VALID,0,VALID,23.7017,VALID,5,VALID,0.446875,
2009-08-27, 01:24:04,VALID,1003.23,VALID,0,VALID,94.5829,VALID,0,VALID,23.6823,VALID,5,VALID,0.5875,
2009-08-27, 01:25:04,VALID,1003.25,VALID,0,VALID,94.5981,VALID,0,VALID,23.6628,VALID,5,VALID,0.475781,
2009-08-27, 01:26:04,VALID,1003.24,VALID,0,VALID,94.6057,VALID,0,VALID,23.6628,VALID,5,VALID,0.359766,
2009-08-27, 01:27:04,VALID,1003.22,VALID,0,VALID,94.621,VALID,0,VALID,23.6646,VALID,5,VALID,0.430078,
2009-08-27, 01:28:04,VALID,1003.22,VALID,0,VALID,94.621,VALID,0.100563,VALID,23.6434,VALID,5,VALID,0.364844,
2009-08-27, 01:29:04,VALID,1003.21,VALID,0,VALID,94.6668,VALID,0,VALID,23.6646,VALID,5,VALID,0.3375,
2009-08-27, 01:30:04,VALID,1003.18,VALID,0,VALID,94.6744,VALID,0,VALID,23.6434,VALID,5,VALID,0.219531,
2009-08-27, 01:31:04,VALID,1003.18,VALID,0,VALID,94.7278,VALID,0,VALID,23.6434,VALID,5,VALID,0.0359375,
2009-08-27, 01:32:04,VALID,1003.16,VALID,0,VALID,94.7583,VALID,0,VALID,23.6841,VALID,5,VALID,0.188281,
2009-08-27, 01:33:04,VALID,1003.16,VALID,0,VALID,94.7736,VALID,0,VALID,23.6841,VALID,5,VALID,0.195703,
2009-08-27, 01:34:04,VALID,1003.17,VALID,0,VALID,94.7812,VALID,0,VALID,23.6841,VALID,5,VALID,0.330859,
2009-08-27, 01:35:04,VALID,1003.17,VALID,0,VALID,94.827,VALID,0.100563,VALID,23.6823,VALID,5,VALID,0.414453,
2009-08-27, 01:36:04,VALID,1003.13,VALID,0,VALID,94.8575,VALID,0,VALID,23.7017,VALID,5,VALID,0.5625,
2009-08-27, 01:37:04,VALID,1003.16,VALID,0,VALID,94.8651,VALID,0,VALID,23.6823,VALID,5,VALID,0.554688,
2009-08-27, 01:38:04,VALID,1003.15,VALID,0,VALID,94.8117,VALID,0,VALID,23.6434,VALID,5,VALID,0.637891,
2009-08-27, 01:39:04,VALID,1003.14,VALID,0,VALID,94.7736,VALID,0.100563,VALID,23.6044,VALID,5,VALID,0.533984,
2009-08-27, 01:40:04,VALID,1003.17,VALID,0,VALID,94.7583,VALID,0,VALID,23.585,VALID,5,VALID,0.586328,
2009-08-27, 01:41:04,VALID,1003.14,VALID,0,VALID,94.7354,VALID,0,VALID,23.5868,VALID,5,VALID,0.670703,
2009-08-27, 01:42:04,VALID,1003.16,VALID,0,VALID,94.7736,VALID,0,VALID,23.5655,VALID,5,VALID,0.624609,
2009-08-27, 01:43:04,VALID,1003.17,VALID,0,VALID,94.7965,VALID,0,VALID,23.585,VALID,5,VALID,0.617969,
2009-08-27, 01:44:04,VALID,1003.17,VALID,0,VALID,94.8346,VALID,0.100563,VALID,23.6062,VALID,5,VALID,0.46875,
2009-08-27, 01:45:04,VALID,1003.21,VALID,0,VALID,94.8804,VALID,0,VALID,23.5637,VALID,5,VALID,0.532422,
2009-08-27, 01:46:04,VALID,1003.2,VALID,0,VALID,94.8956,VALID,0,VALID,23.585,VALID,5,VALID,0.486328,
2009-08-27, 01:47:04,VALID,1003.23,VALID,0,VALID,94.9109,VALID,0,VALID,23.585,VALID,5,VALID,0.389844,
2009-08-27, 01:48:04,VALID,1003.2,VALID,0,VALID,94.9262,VALID,0,VALID,23.5868,VALID,5,VALID,0.465234,
2009-08-27, 01:49:04,VALID,1003.19,VALID,0,VALID,94.9338,VALID,0.100563,VALID,23.546,VALID,5,VALID,0.427734,
2009-08-27, 01:50:04,VALID,1003.21,VALID,0,VALID,94.9338,VALID,0.100563,VALID,23.5478,VALID,5,VALID,0.331641,
2009-08-27, 01:51:04,VALID,1003.19,VALID,0,VALID,94.9262,VALID,0.100563,VALID,23.5071,VALID,5,VALID,0.395312,
2009-08-27, 01:52:04,VALID,1003.19,VALID,0,VALID,94.9033,VALID,0,VALID,23.4682,VALID,5,VALID,0.277344,
2009-08-27, 01:53:04,VALID,1003.19,VALID,0,VALID,94.9109,VALID,0,VALID,23.47,VALID,5,VALID,0.453906,
2009-08-27, 01:54:04,VALID,1003.18,VALID,0,VALID,94.9643,VALID,0,VALID,23.4682,VALID,5,VALID,0.46875,
2009-08-27, 01:55:04,VALID,1003.19,VALID,0,VALID,94.9872,VALID,0.100563,VALID,23.4682,VALID,5,VALID,0.372266,
2009-08-27, 01:56:04,VALID,1003.19,VALID,0,VALID,95.0177,VALID,0,VALID,23.5071,VALID,5,VALID,0.484766,
2009-08-27, 01:57:04,VALID,1003.16,VALID,0,VALID,95.033,VALID,0,VALID,23.5284,VALID,5,VALID,0.317969,
2009-08-27, 01:58:04,VALID,1003.18,VALID,0,VALID,95.0635,VALID,0,VALID,23.5071,VALID,5,VALID,0.260547,
2009-08-27, 01:59:04,VALID,1003.16,VALID,0,VALID,95.0787,VALID,0,VALID,23.5478,VALID,5,VALID,0.0375,
2009-08-27, 02:00:04,VALID,1003.12,VALID,0,VALID,95.1093,VALID,0,VALID,23.5266,VALID,3,VALID,0,
2009-08-27, 02:01:04,VALID,1003.11,VALID,0,VALID,95.1474,VALID,0,VALID,23.6062,VALID,1,VALID,0.0269531,
2009-08-27, 02:02:04,VALID,1003.1,VALID,0,VALID,95.1627,VALID,0,VALID,23.6062,VALID,1,VALID,0.448828,
2009-08-27, 02:03:04,VALID,1003.07,VALID,0,VALID,95.1474,VALID,0.100563,VALID,23.6452,VALID,1,VALID,0.416016,
2009-08-27, 02:04:04,VALID,1003.06,VALID,0,VALID,95.1169,VALID,0,VALID,23.585,VALID,1,VALID,0.364453,
2009-08-27, 02:05:04,VALID,1003.09,VALID,0,VALID,95.1093,VALID,0.100563,VALID,23.585,VALID,1,VALID,0.308594,
2009-08-27, 02:06:04,VALID,1003.03,VALID,0,VALID,95.0635,VALID,0.100563,VALID,23.5655,VALID,1,VALID,0.38125,
2009-08-27, 02:07:04,VALID,1003.04,VALID,0,VALID,95.0101,VALID,0.100563,VALID,23.546,VALID,1,VALID,0.444141,
2009-08-27, 02:08:04,VALID,1002.98,VALID,0,VALID,94.9948,VALID,0.100563,VALID,23.5266,VALID,1,VALID,0.417578,
2009-08-27, 02:09:04,VALID,1002.98,VALID,0,VALID,94.9719,VALID,0.100563,VALID,23.5071,VALID,1,VALID,0.441016,
2009-08-27, 02:10:04,VALID,1002.98,VALID,0,VALID,94.9567,VALID,0,VALID,23.4877,VALID,1,VALID,0.464453,
2009-08-27, 02:11:04,VALID,1002.97,VALID,0,VALID,94.9567,VALID,0.100563,VALID,23.4487,VALID,1,VALID,0.458594,
2009-08-27, 02:12:04,VALID,1003.02,VALID,0,VALID,94.9338,VALID,0.100563,VALID,23.4505,VALID,1,VALID,0,
2009-08-27, 02:13:04,VALID,1002.99,VALID,0,VALID,94.9262,VALID,0,VALID,23.4098,VALID,1,VALID,0,
2009-08-27, 02:14:04,VALID,1003.01,VALID,0,VALID,94.9414,VALID,0,VALID,23.4098,VALID,1,VALID,0,
2009-08-27, 02:15:04,VALID,1003.07,VALID,0,VALID,94.9796,VALID,0,VALID,23.4293,VALID,1,VALID,0,
2009-08-27, 02:16:04,VALID,1003.04,VALID,0,VALID,95.0101,VALID,0,VALID,23.4505,VALID,1,VALID,0,
2009-08-27, 02:17:04,VALID,1003.08,VALID,0,VALID,95.033,VALID,0,VALID,23.4275,VALID,1,VALID,0,
2009-08-27, 02:18:04,VALID,1003.11,VALID,0,VALID,95.0253,VALID,0,VALID,23.4293,VALID,1,VALID,0,
2009-08-27, 02:19:04,VALID,1003.15,VALID,0,VALID,95.0101,VALID,0,VALID,23.4098,VALID,1,VALID,0,
2009-08-27, 02:20:04,VALID,1003.15,VALID,0,VALID,95.0024,VALID,0.100563,VALID,23.4098,VALID,1,VALID,0,
2009-08-27, 02:21:04,VALID,1003.15,VALID,0,VALID,94.9948,VALID,0,VALID,23.3904,VALID,1,VALID,0,
2009-08-27, 02:22:04,VALID,1003.19,VALID,0,VALID,95.0101,VALID,0,VALID,23.3904,VALID,1,VALID,0,
2009-08-27, 02:23:04,VALID,1003.18,VALID,0,VALID,95.0177,VALID,0.100563,VALID,23.3921,VALID,1,VALID,0,
2009-08-27, 02:24:04,VALID,1003.2,VALID,0,VALID,94.9719,VALID,0,VALID,23.3709,VALID,1,VALID,0,
2009-08-27, 02:25:04,VALID,1003.17,VALID,0,VALID,94.9872,VALID,0,VALID,23.3514,VALID,1,VALID,0,
2009-08-27, 02:26:04,VALID,1003.18,VALID,0,VALID,94.9948,VALID,0,VALID,23.3125,VALID,1,VALID,0,
2009-08-27, 02:27:04,VALID,1003.2,VALID,0,VALID,94.9719,VALID,0,VALID,23.2931,VALID,1,VALID,0,
2009-08-27, 02:28:04,VALID,1003.16,VALID,0,VALID,94.9796,VALID,0,VALID,23.2931,VALID,1,VALID,0,
2009-08-27, 02:29:04,VALID,1003.18,VALID,0,VALID,95.0101,VALID,0,VALID,23.2931,VALID,1,VALID,0,
2009-08-27, 02:30:04,VALID,1003.21,VALID,0,VALID,95.0406,VALID,0,VALID,23.2931,VALID,1,VALID,0,
2009-08-27, 02:31:04,VALID,1003.19,VALID,0,VALID,95.0711,VALID,0,VALID,23.3125,VALID,1,VALID,0,
2009-08-27, 02:32:04,VALID,1003.19,VALID,0,VALID,95.0787,VALID,0.100563,VALID,23.2913,VALID,1,VALID,0,
2009-08-27, 02:33:04,VALID,1003.19,VALID,0,VALID,95.1093,VALID,0.100563,VALID,23.332,VALID,1,VALID,0,
2009-08-27, 02:34:04,VALID,1003.16,VALID,0,VALID,95.1321,VALID,0.100563,VALID,23.3532,VALID,1,VALID,0,
2009-08-27, 02:35:04,VALID,1003.17,VALID,0,VALID,95.1627,VALID,0,VALID,23.3532,VALID,1,VALID,0,
2009-08-27, 02:36:04,VALID,1003.17,VALID,0,VALID,95.1855,VALID,0,VALID,23.332,VALID,1,VALID,0,
2009-08-27, 02:37:04,VALID,1003.17,VALID,0,VALID,95.1703,VALID,0,VALID,23.332,VALID,1,VALID,0,
2009-08-27, 02:38:04,VALID,1003.18,VALID,0,VALID,95.2084,VALID,0,VALID,23.3532,VALID,1,VALID,0,
2009-08-27, 02:39:04,VALID,1003.16,VALID,0,VALID,95.2237,VALID,0,VALID,23.332,VALID,1,VALID,0,
2009-08-27, 02:40:04,VALID,1003.21,VALID,0,VALID,95.2161,VALID,0,VALID,23.3532,VALID,1,VALID,0,
2009-08-27, 02:41:04,VALID,1003.22,VALID,0,VALID,95.2313,VALID,0,VALID,23.3514,VALID,1,VALID,0,
2009-08-27, 02:42:04,VALID,1003.24,VALID,0,VALID,95.2542,VALID,0,VALID,23.332,VALID,1,VALID,0,
2009-08-27, 02:43:04,VALID,1003.23,VALID,0,VALID,95.2466,VALID,0,VALID,23.3514,VALID,1,VALID,0,
2009-08-27, 02:44:04,VALID,1003.23,VALID,0,VALID,95.2847,VALID,0,VALID,23.3921,VALID,1,VALID,0.177734,
2009-08-27, 02:45:04,VALID,1003.24,VALID,0,VALID,95.2923,VALID,0.100563,VALID,23.3709,VALID,1,VALID,0.460547,
2009-08-27, 02:46:04,VALID,1003.22,VALID,0,VALID,95.3076,VALID,0,VALID,23.3904,VALID,1,VALID,0.433203,
2009-08-27, 02:47:04,VALID,1003.23,VALID,0,VALID,95.3305,VALID,0.100563,VALID,23.4098,VALID,1,VALID,0.270703,
2009-08-27, 02:48:04,VALID,1003.22,VALID,0,VALID,95.3381,VALID,0.100563,VALID,23.4293,VALID,1,VALID,0.434375,
2009-08-27, 02:49:04,VALID,1003.22,VALID,0,VALID,95.3686,VALID,0,VALID,23.4311,VALID,1,VALID,0.367188,
2009-08-27, 02:50:04,VALID,1003.23,VALID,0,VALID,95.361,VALID,0,VALID,23.4293,VALID,1,VALID,0.291797,
2009-08-27, 02:51:04,VALID,1003.23,VALID,0,VALID,95.3457,VALID,0,VALID,23.4098,VALID,1,VALID,0.209766,
2009-08-27, 02:52:04,VALID,1003.29,VALID,0,VALID,95.3305,VALID,0,VALID,23.3904,VALID,1,VALID,0.305078,
2009-08-27, 02:53:04,VALID,1003.26,VALID,0,VALID,95.3305,VALID,0.100563,VALID,23.3921,VALID,1,VALID,0.240625,
2009-08-27, 02:54:04,VALID,1003.29,VALID,0,VALID,95.3,VALID,0,VALID,23.3514,VALID,1,VALID,0.408594,
2009-08-27, 02:55:04,VALID,1003.29,VALID,0,VALID,95.3076,VALID,0.100563,VALID,23.3107,VALID,1,VALID,0.349609,
2009-08-27, 02:56:04,VALID,1003.31,VALID,0,VALID,95.2847,VALID,0,VALID,23.3125,VALID,1,VALID,0.30625,
2009-08-27, 02:57:04,VALID,1003.32,VALID,0,VALID,95.2695,VALID,0,VALID,23.3125,VALID,1,VALID,0.396484,
2009-08-27, 02:58:04,VALID,1003.32,VALID,0,VALID,95.2542,VALID,0,VALID,23.2524,VALID,1,VALID,0.389844,
2009-08-27, 02:59:04,VALID,1003.34,VALID,0,VALID,95.2389,VALID,0,VALID,23.2754,VALID,1,VALID,0.307422,
2009-08-27, 03:00:04,VALID,1003.35,VALID,0,VALID,95.2466,VALID,0,VALID,23.2347,VALID,1,VALID,0,
2009-08-27, 03:01:04,VALID,1003.35,VALID,0,VALID,95.2313,VALID,0,VALID,23.2347,VALID,1,VALID,0,
2009-08-27, 03:02:04,VALID,1003.36,VALID,0,VALID,95.2542,VALID,0,VALID,23.2541,VALID,1,VALID,0,
2009-08-27, 03:03:04,VALID,1003.36,VALID,0,VALID,95.2695,VALID,0,VALID,23.2931,VALID,1,VALID,0,
2009-08-27, 03:04:04,VALID,1003.36,VALID,0,VALID,95.2923,VALID,0,VALID,23.2931,VALID,1,VALID,0,
2009-08-27, 03:05:04,VALID,1003.33,VALID,0,VALID,95.2771,VALID,0,VALID,23.2736,VALID,1,VALID,0,
2009-08-27, 03:06:04,VALID,1003.34,VALID,0,VALID,95.2847,VALID,0,VALID,23.2736,VALID,1,VALID,0,
2009-08-27, 03:07:04,VALID,1003.3,VALID,0,VALID,95.2923,VALID,0,VALID,23.2948,VALID,1,VALID,0,
2009-08-27, 03:08:04,VALID,1003.34,VALID,0,VALID,95.3,VALID,0,VALID,23.2931,VALID,1,VALID,0,
2009-08-27, 03:09:04,VALID,1003.32,VALID,0,VALID,95.3229,VALID,0,VALID,23.3125,VALID,1,VALID,0,
2009-08-27, 03:10:04,VALID,1003.31,VALID,0,VALID,95.3534,VALID,0,VALID,23.3125,VALID,1,VALID,0,
2009-08-27, 03:11:04,VALID,1003.29,VALID,0,VALID,95.3381,VALID,0,VALID,23.3143,VALID,1,VALID,0.326172,
2009-08-27, 03:12:04,VALID,1003.28,VALID,0,VALID,95.3381,VALID,0,VALID,23.2931,VALID,1,VALID,0.727734,
2009-08-27, 03:13:04,VALID,1003.3,VALID,0,VALID,95.361,VALID,0,VALID,23.3125,VALID,1,VALID,0.708594,
2009-08-27, 03:14:04,VALID,1003.25,VALID,0,VALID,95.3686,VALID,0,VALID,23.3125,VALID,360,VALID,0.809375,
2009-08-27, 03:15:04,VALID,1003.26,VALID,0,VALID,95.3686,VALID,0,VALID,23.3125,VALID,360,VALID,0.667188,
2009-08-27, 03:16:04,VALID,1003.27,VALID,0,VALID,95.3763,VALID,0,VALID,23.3125,VALID,360,VALID,0.630469,
2009-08-27, 03:17:04,VALID,1003.27,VALID,0,VALID,95.3534,VALID,0,VALID,23.2931,VALID,360,VALID,0.554297,
2009-08-27, 03:18:04,VALID,1003.26,VALID,0,VALID,95.3534,VALID,0.100563,VALID,23.2736,VALID,360,VALID,0.512891,
2009-08-27, 03:19:04,VALID,1003.24,VALID,0,VALID,95.3686,VALID,0,VALID,23.2931,VALID,360,VALID,0.612109,
2009-08-27, 03:20:04,VALID,1003.24,VALID,0,VALID,95.3229,VALID,0,VALID,23.2736,VALID,360,VALID,0.388672,
2009-08-27, 03:21:04,VALID,1003.26,VALID,0,VALID,95.3534,VALID,0,VALID,23.2913,VALID,360,VALID,0.412109,
2009-08-27, 03:22:04,VALID,1003.26,VALID,0,VALID,95.3686,VALID,0,VALID,23.3125,VALID,360,VALID,0.430859,
2009-08-27, 03:23:04,VALID,1003.25,VALID,0,VALID,95.3534,VALID,0,VALID,23.3125,VALID,360,VALID,0.437109,
2009-08-27, 03:24:04,VALID,1003.24,VALID,0,VALID,95.3686,VALID,0,VALID,23.332,VALID,360,VALID,0.491797,
2009-08-27, 03:25:04,VALID,1003.25,VALID,0,VALID,95.3534,VALID,0,VALID,23.3514,VALID,360,VALID,0.644922,
2009-08-27, 03:26:04,VALID,1003.25,VALID,0,VALID,95.3534,VALID,0,VALID,23.3904,VALID,343,VALID,0.868359,
2009-08-27, 03:27:04,VALID,1003.28,VALID,0,VALID,95.3763,VALID,0,VALID,23.3904,VALID,353,VALID,0.747266,
2009-08-27, 03:28:04,VALID,1003.28,VALID,0,VALID,95.422,VALID,0,VALID,23.4682,VALID,351,VALID,0.633203,
2009-08-27, 03:29:04,VALID,1003.3,VALID,0,VALID,95.3915,VALID,0,VALID,23.5071,VALID,351,VALID,0.405469,
2009-08-27, 03:30:04,VALID,1003.29,VALID,0,VALID,95.3991,VALID,0.100563,VALID,23.5655,VALID,351,VALID,0.439453,
2009-08-27, 03:31:04,VALID,1003.3,VALID,0,VALID,95.3991,VALID,0,VALID,23.5832,VALID,352,VALID,0.434766,
2009-08-27, 03:32:04,VALID,1003.31,VALID,0,VALID,95.3686,VALID,0.100563,VALID,23.6044,VALID,353,VALID,0.533594,
2009-08-27, 03:33:04,VALID,1003.3,VALID,0,VALID,95.3457,VALID,0.100563,VALID,23.585,VALID,353,VALID,0.493359,
2009-08-27, 03:34:04,VALID,1003.34,VALID,0,VALID,95.3076,VALID,0,VALID,23.5655,VALID,353,VALID,0.186328,
2009-08-27, 03:35:04,VALID,1003.34,VALID,0,VALID,95.2695,VALID,0,VALID,23.5443,VALID,353,VALID,0.392969,
2009-08-27, 03:36:04,VALID,1003.34,VALID,0,VALID,95.2237,VALID,0,VALID,23.585,VALID,353,VALID,0.00429688,
2009-08-27, 03:37:04,VALID,1003.34,VALID,0,VALID,95.2008,VALID,0,VALID,23.585,VALID,353,VALID,0.590625,
2009-08-27, 03:38:04,VALID,1003.37,VALID,0,VALID,95.1855,VALID,0,VALID,23.6044,VALID,348,VALID,0.711328,
2009-08-27, 03:39:04,VALID,1003.41,VALID,0,VALID,95.1779,VALID,0,VALID,23.6434,VALID,350,VALID,0.655859,
2009-08-27, 03:40:04,VALID,1003.41,VALID,0,VALID,95.155,VALID,0,VALID,23.6239,VALID,348,VALID,0.655469,
2009-08-27, 03:41:04,VALID,1003.42,VALID,0,VALID,95.1169,VALID,0.100563,VALID,23.6628,VALID,314,VALID,0.568359,
2009-08-27, 03:42:04,VALID,1003.44,VALID,0,VALID,95.1016,VALID,0,VALID,23.7017,VALID,348,VALID,0.231641,
2009-08-27, 03:43:04,VALID,1003.47,VALID,0,VALID,95.094,VALID,0,VALID,23.7425,VALID,348,VALID,0.0972656,
2009-08-27, 03:44:04,VALID,1003.47,VALID,0,VALID,95.0558,VALID,0,VALID,23.7796,VALID,348,VALID,0,
2009-08-27, 03:45:04,VALID,1003.46,VALID,0,VALID,95.033,VALID,0.100563,VALID,23.7796,VALID,348,VALID,0,
2009-08-27, 03:46:04,VALID,1003.46,VALID,0,VALID,94.9872,VALID,0,VALID,23.8185,VALID,346,VALID,0.428516,
2009-08-27, 03:47:04,VALID,1003.43,VALID,0,VALID,94.9338,VALID,0,VALID,23.8185,VALID,346,VALID,0.375781,